Content
SEND FEEDBACK

Daily
Averages
Monthly
Summary
United States of America

ST. LOUIS, MISSOURI


Home > North America > United States > Missouri
Elevation: 535 feet     Latitude: 38 45N     Longitude: 090 22W

WEATHER
 
SELECT A DAY
Number of Records: 201,437;   Date Range: 1/1/95 - 12/25/14
 
SHARE

PRINT THIS DATA

[ ← Previous Day ]
WEATHER ALMANAC - SEPTEMBER 14, 2013
[ Next Day → ]
[ °C ]   °F
Weather ElementAverageHighLow
Temperature61.5 °F75.9 °F (3:54 pm)44.1 °F (5:54 am)
Dewpoint44 °F48 °F (7:54 am)39 °F (5:54 pm)
Humidity58.1 %93 % (2:54 am)27 % (4:54 pm)
Barometer30.09 in30.17 in (8:54 am)30.02 in (4:54 pm)
Wind Speed2.2 mph6.9 mph (1:54 pm)
Weather ElementAverage
Visibility10 mi
Wind DirectionENE (60.4 °)

Weather ElementTotal
Precipitation---
Heating Degree Days5 (Base 65)
Growing Degree Days10 (Base 50)
Averaged from 23 records on September 14, 2013
WEATHER CONDITIONS BREAKOUT
WIND DIRECTION BREAKOUT
WEATHER BY HOUR - SEPTEMBER 14, 2013
[ °C ]   °F
Local TimeTemperatureDewpointHumidityBarometerVisibilityWind DirectionWind SpeedGust SpeedPrecipitationEventsConditions
1:54 AM50.0 °F46.9 °F89 %30.12 in10.0 miCalmClear
2:54 AM48.9 °F46.9 °F93 %30.11 in10.0 miCalmClear
3:54 AM48.9 °F46.0 °F90 %30.11 in10.0 miCalmClear
4:54 AM48.0 °F46.0 °F93 %30.11 in10.0 miCalmClear
5:54 AM44.1 °F42.1 °F93 %30.12 in10.0 miCalmClear
6:54 AM46.0 °F44.1 °F93 %30.14 in10.0 miCalmPartly Cloudy
7:54 AM52.0 °F48.0 °F86 %30.16 in10.0 miCalmPartly Cloudy
8:54 AM57.9 °F48.0 °F70 %30.17 in10.0 miCalmClear
9:54 AM63.0 °F48.0 °F58 %30.17 in10.0 miCalmClear
10:54 AM66.0 °F44.1 °F45 %30.17 in10.0 miESE (110°)3.5 mphScattered Clouds
11:54 AM70.0 °F43.0 °F38 %30.15 in10.0 miNorth (350°)4.6 mphScattered Clouds
12:54 PM71.1 °F41.0 °F34 %30.13 in10.0 miSE (130°)4.6 mphPartly Cloudy
1:54 PM73.0 °F42.1 °F33 %30.09 in10.0 miNE (50°)6.9 mphPartly Cloudy
2:54 PM73.0 °F42.1 °F33 %30.07 in10.0 miCalmPartly Cloudy
3:54 PM75.9 °F42.1 °F30 %30.04 in10.0 miVariable5.8 mphPartly Cloudy
4:54 PM75.9 °F39.9 °F27 %30.02 in10.0 miNE (40°)5.8 mphClear
5:54 PM75.0 °F39.0 °F27 %30.03 in10.0 miESE (120°)3.5 mphClear
6:54 PM66.0 °F48.0 °F52 %30.03 in10.0 miSSE (150°)3.5 mphClear
7:54 PM63.0 °F45.0 °F52 %30.03 in10.0 miESE (120°)4.6 mphScattered Clouds
8:54 PM62.1 °F43.0 °F50 %30.04 in10.0 miSSE (150°)3.5 mphClear
9:54 PM62.1 °F42.1 °F48 %30.04 in10.0 miCalmClear
10:54 PM61.0 °F43.0 °F52 %30.03 in10.0 miCalmClear
11:54 PM61.0 °F42.1 °F50 %30.04 in10.0 miSouth (170°)3.5 mphClear
Hourly data recorded from KSUS, located miles away from St. Louis, Missouri







STORIES FROM OUR PARTNERS